| time (UTC) | temp F | wind direction | speed MPH | gust MPH | rain 1hr in | rain 24hr in | rain mn in | humidity % | barometer mb |
| 20260903135119 | 77 | 135 | 1.0 | 2.0 | 0.00 | 0.04 | 0.04 | 99 | 1016.6 |
| 20260903134143 | 77 | 0.0 | 1.0 | 0.00 | 0.04 | 0.04 | 99 | 1016.4 | |
| 20260903133119 | 77 | 90 | 1.0 | 2.0 | 0.00 | 0.04 | 0.04 | 99 | 1016.3 |
| 20260903132143 | 77 | 180 | 1.0 | 2.0 | 0.00 | 0.04 | 0.04 | 99 | 1016.4 |
| 20260903131119 | 76 | 0.0 | 1.0 | 0.00 | 0.04 | 0.04 | 99 | 1016.4 | |
| 20260903130143 | 76 | 0.0 | 1.0 | 0.00 | 0.04 | 0.04 | 99 | 1016.3 | |
| 20260903125119 | 76 | 0.0 | 1.0 | 0.00 | 0.04 | 0.04 | 99 | 1016.3 | |
| 20260903124143 | 76 | 0.0 | 1.0 | 0.00 | 0.04 | 0.04 | 99 | 1016.1 | |
| 20260903123139 | 75 | 135 | 1.0 | 1.0 | 0.00 | 0.04 | 0.04 | 99 | 1016.1 |
| 20260903122143 | 75 | 0.0 | 0.0 | 0.00 | 0.04 | 0.04 | 99 | 1015.9 | |
| 20260903121119 | 75 | 0.0 | 1.0 | 0.00 | 0.04 | 0.04 | 99 | 1015.8 | |
| 20260903120143 | 75 | 135 | 1.0 | 3.0 | 0.00 | 0.04 | 0.04 | 99 | 1015.7 |
| 20260903115119 | 75 | 0.0 | 1.0 | 0.00 | 0.04 | 0.04 | 99 | 1015.7 | |
| 20260903114143 | 75 | 0.0 | 1.0 | 0.00 | 0.04 | 0.04 | 99 | 1015.5 | |
| 20260903113119 | 75 | 135 | 1.0 | 2.0 | 0.00 | 0.04 | 0.04 | 99 | 1015.6 |
| 20260903112143 | 75 | 135 | 1.0 | 2.0 | 0.00 | 0.04 | 0.04 | 99 | 1015.8 |
| 20260903111119 | 75 | 135 | 1.0 | 1.0 | 0.00 | 0.04 | 0.04 | 99 | 1015.7 |
| 20260903110143 | 74 | 0.0 | 1.0 | 0.00 | 0.04 | 0.04 | 99 | 1015.6 | |
| 20260903105118 | 74 | 135 | 1.0 | 2.0 | 0.00 | 0.04 | 0.04 | 99 | 1015.6 |
| 20260903104143 | 75 | 0.0 | 0.0 | 0.00 | 0.04 | 0.04 | 99 | 1015.4 | |
| 20260903103119 | 75 | 0.0 | 1.0 | 0.00 | 0.04 | 0.04 | 99 | 1015.4 | |
| 20260903102143 | 75 | 0.0 | 1.0 | 0.01 | 0.04 | 0.04 | 99 | 1015.3 | |
| 20260903101119 | 75 | 90 | 1.0 | 3.0 | 0.02 | 0.04 | 0.04 | 99 | 1015.1 |
| 20260903100143 | 75 | 0.0 | 1.0 | 0.04 | 0.04 | 0.04 | 99 | 1015.4 | |
| 20260903095119 | 75 | 0.0 | 1.0 | 0.04 | 0.04 | 0.04 | 98 | 1015.2 | |
| 20260903094142 | 75 | 0.0 | 1.0 | 0.04 | 0.04 | 0.04 | 97 | 1015.3 | |
| 20260903093119 | 75 | 0.0 | 0.0 | 0.04 | 0.04 | 0.04 | 96 | 1015.3 | |
| 20260903092143 | 75 | 0.0 | 1.0 | 0.02 | 0.02 | 0.02 | 95 | 1015.2 | |
| 20260903091120 | 75 | 90 | 1.0 | 2.0 | 0.01 | 0.01 | 0.01 | 93 | 1015.3 |
| 20260903090143 | 76 | 135 | 1.0 | 3.0 | 0.00 | 0.00 | 0.00 | 92 | 1015.2 |
| 20260903085119 | 76 | 90 | 3.0 | 4.0 | 0.00 | 0.00 | 0.00 | 91 | 1015.3 |
| 20260903084143 | 76 | 90 | 1.0 | 4.0 | 0.00 | 0.00 | 0.00 | 88 | 1015.3 |
| 20260903083119 | 76 | 90 | 7.0 | 8.0 | 0.00 | 0.00 | 0.00 | 87 | 1015.1 |
| 20260903082142 | 77 | 90 | 3.0 | 5.0 | 0.00 | 0.00 | 0.00 | 84 | 1015.0 |
| 20260903081119 | 77 | 135 | 5.0 | 7.0 | 0.00 | 0.00 | 0.00 | 82 | 1015.3 |
| 20260903080143 | 77 | 180 | 3.0 | 5.0 | 0.00 | 0.00 | 0.00 | 82 | 1015.1 |
| 20260903075119 | 78 | 135 | 9.0 | 12.0 | 0.00 | 0.00 | 0.00 | 81 | 1015.1 |
| 20260903074143 | 78 | 180 | 7.0 | 9.0 | 0.00 | 0.00 | 0.00 | 80 | 1015.1 |
| 20260903073119 | 78 | 180 | 2.0 | 3.0 | 0.00 | 0.00 | 0.00 | 79 | 1015.2 |
| 20260903072143 | 78 | 90 | 6.0 | 10.0 | 0.00 | 0.00 | 0.00 | 78 | 1015.4 |
| 20260903071139 | 79 | 180 | 7.0 | 7.0 | 0.00 | 0.00 | 0.00 | 77 | 1015.4 |
| 20260903070203 | 79 | 45 | 5.0 | 7.0 | 0.00 | 0.00 | 0.00 | 76 | 1015.5 |
| 20260903065159 | 79 | 90 | 2.0 | 4.0 | 0.00 | 0.00 | 0.00 | 75 | 1015.4 |
| 20260903064143 | 79 | 45 | 1.0 | 2.0 | 0.00 | 0.00 | 0.00 | 75 | 1015.3 |
| 20260903063139 | 79 | 45 | 1.0 | 2.0 | 0.00 | 0.00 | 0.00 | 75 | 1015.5 |
| 20260903062143 | 79 | 90 | 1.0 | 3.0 | 0.00 | 0.00 | 0.00 | 75 | 1015.3 |
| 20260903061139 | 79 | 90 | 1.0 | 1.0 | 0.00 | 0.00 | 0.00 | 75 | 1015.7 |
| 20260903060143 | 78 | 90 | 2.0 | 3.0 | 0.00 | 0.00 | 0.00 | 75 | 1015.8 |
| 20260903055119 | 78 | 90 | 3.0 | 7.0 | 0.00 | 0.00 | 0.00 | 75 | 1015.8 |
| 20260903054143 | 79 | 90 | 3.0 | 3.0 | 0.00 | 0.00 | 0.00 | 74 | 1016.0 |
| 20260903053119 | 79 | 45 | 4.0 | 6.0 | 0.00 | 0.00 | 0.00 | 73 | 1016.0 |
| 20260903052143 | 79 | 180 | 3.0 | 6.0 | 0.00 | 0.00 | 0.00 | 73 | 1016.1 |
| 20260903051139 | 80 | 0 | 3.0 | 4.0 | 0.00 | 0.00 | 0.00 | 72 | 1016.3 |
| 20260903050143 | 80 | 135 | 3.0 | 6.0 | 0.00 | 0.00 | 0.00 | 71 | 1016.2 |
| 20260903045119 | 80 | 45 | 6.0 | 7.0 | 0.00 | 0.00 | 0.00 | 71 | 1016.3 |
| 20260903044143 | 81 | 113 | 6.0 | 8.0 | 0.00 | 0.00 | 0.00 | 70 | 1016.2 |
| 20260903043119 | 81 | 180 | 3.0 | 5.0 | 0.00 | 0.00 | 0.00 | 70 | 1016.0 |
| 20260903042143 | 82 | 45 | 3.0 | 4.0 | 0.00 | 0.00 | 0.00 | 64 | 1016.0 |
| 20260903041119 | 82 | 135 | 4.0 | 5.0 | 0.00 | 0.00 | 0.00 | 63 | 1016.1 |
| 20260903040143 | 82 | 315 | 3.0 | 6.0 | 0.00 | 0.00 | 0.00 | 62 | 1016.1 |
| 20260903035119 | 82 | 180 | 3.0 | 5.0 | 0.00 | 0.00 | 0.00 | 62 | 1016.0 |
| 20260903034143 | 83 | 90 | 3.0 | 5.0 | 0.00 | 0.00 | 0.00 | 62 | 1016.0 |
| 20260903033139 | 83 | 90 | 3.0 | 5.0 | 0.00 | 0.00 | 0.00 | 61 | 1016.2 |
| 20260903032203 | 84 | 180 | 5.0 | 8.0 | 0.00 | 0.00 | 0.00 | 60 | 1015.7 |
| 20260903031119 | 84 | 90 | 6.0 | 12.0 | 0.00 | 0.00 | 0.00 | 61 | 1016.0 |
| 20260903030143 | 85 | 0.0 | 0.0 | 0.00 | 0.00 | 0.00 | 60 | 1015.8 | |
| 20260903025119 | 85 | 135 | 3.0 | 4.0 | 0.00 | 0.00 | 0.00 | 58 | 1015.8 |
| 20260903024223 | 86 | 135 | 7.0 | 11.0 | 0.00 | 0.00 | 0.00 | 57 | 1015.6 |
| 20260903023119 | 86 | 90 | 3.0 | 4.0 | 0.00 | 0.00 | 0.00 | 57 | 1015.8 |
| 20260903022143 | 87 | 135 | 2.0 | 3.0 | 0.00 | 0.00 | 0.00 | 56 | 1015.4 |
| 20260903021119 | 87 | 45 | 4.0 | 7.0 | 0.00 | 0.00 | 0.00 | 55 | 1015.1 |
| 20260903020143 | 87 | 135 | 5.0 | 7.0 | 0.00 | 0.00 | 0.00 | 53 | 1015.0 |
| 20260903015119 | 87 | 90 | 3.0 | 5.0 | 0.00 | 0.00 | 0.00 | 53 | 1015.0 |
| 20260903014143 | 87 | 90 | 2.0 | 4.0 | 0.00 | 0.00 | 0.00 | 53 | 1014.8 |
| 20260903013119 | 88 | 90 | 3.0 | 4.0 | 0.00 | 0.00 | 0.00 | 53 | 1014.6 |
| 20260903012143 | 88 | 135 | 4.0 | 5.0 | 0.00 | 0.00 | 0.00 | 52 | 1014.6 |
| 20260903011118 | 88 | 135 | 4.0 | 5.0 | 0.00 | 0.00 | 0.00 | 52 | 1014.4 |
| 20260903010143 | 89 | 135 | 3.0 | 3.0 | 0.00 | 0.00 | 0.00 | 52 | 1014.6 |
| 20260903005119 | 89 | 90 | 4.0 | 5.0 | 0.00 | 0.00 | 0.00 | 52 | 1014.3 |
| 20260903004143 | 89 | 135 | 3.0 | 5.0 | 0.00 | 0.00 | 0.00 | 52 | 1014.2 |
| 20260903003118 | 90 | 180 | 2.0 | 3.0 | 0.00 | 0.00 | 0.00 | 51 | 1014.2 |
| 20260903002143 | 91 | 90 | 1.0 | 3.0 | 0.00 | 0.00 | 0.00 | 49 | 1014.2 |
| 20260903001139 | 90 | 90 | 2.0 | 4.0 | 0.00 | 0.00 | 0.00 | 52 | 1014.2 |
| 20260903000143 | 90 | 90 | 1.0 | 3.0 | 0.00 | 0.00 | 0.00 | 53 | 1014.1 |
| 20260902235119 | 90 | 135 | 1.0 | 2.0 | 0.00 | 0.00 | 0.00 | 52 | 1014.0 |
| 20260902234143 | 91 | 135 | 3.0 | 3.0 | 0.00 | 0.00 | 0.00 | 48 | 1014.1 |
| 20260902233119 | 92 | 90 | 1.0 | 2.0 | 0.00 | 0.00 | 0.00 | 45 | 1014.0 |
| 20260902232143 | 94 | 180 | 1.0 | 3.0 | 0.00 | 0.00 | 0.00 | 41 | 1014.0 |
| 20260902231119 | 98 | 135 | 7.0 | 12.0 | 0.00 | 0.00 | 0.00 | 39 | 1014.2 |
| 20260902230143 | 99 | 315 | 5.0 | 7.0 | 0.00 | 0.00 | 0.00 | 36 | 1013.9 |
| 20260902225119 | 98 | 90 | 3.0 | 5.0 | 0.00 | 0.00 | 0.00 | 35 | 1013.9 |
| 20260902224142 | 98 | 45 | 3.0 | 5.0 | 0.00 | 0.00 | 0.00 | 35 | 1013.8 |
| 20260902223139 | 98 | 90 | 1.0 | 2.0 | 0.00 | 0.00 | 0.00 | 35 | 1013.8 |
| 20260902222143 | 99 | 45 | 5.0 | 7.0 | 0.00 | 0.00 | 0.00 | 34 | 1014.1 |
| 20260902221119 | 99 | 180 | 2.0 | 4.0 | 0.00 | 0.00 | 0.00 | 33 | 1013.9 |
| 20260902220143 | 99 | 135 | 4.0 | 7.0 | 0.00 | 0.00 | 0.00 | 34 | 1013.9 |
| 20260902215118 | 99 | 315 | 4.0 | 5.0 | 0.00 | 0.00 | 0.00 | 33 | 1014.1 |
| 20260902214143 | 100 | 135 | 3.0 | 5.0 | 0.00 | 0.00 | 0.00 | 31 | 1014.0 |
| 20260902213140 | 100 | 0 | 5.0 | 6.0 | 0.00 | 0.00 | 0.00 | 31 | 1014.2 |
| 20260902212143 | 99 | 225 | 2.0 | 3.0 | 0.00 | 0.00 | 0.00 | 34 | 1014.2 |
| 20260902211119 | 99 | 45 | 1.0 | 3.0 | 0.00 | 0.00 | 0.00 | 33 | 1014.4 |
| 20260902210143 | 99 | 135 | 5.0 | 7.0 | 0.00 | 0.00 | 0.00 | 34 | 1014.5 |
| 20260902205119 | 99 | 68 | 3.0 | 5.0 | 0.00 | 0.00 | 0.00 | 34 | 1014.8 |
| 20260902204143 | 98 | 135 | 2.0 | 3.0 | 0.00 | 0.00 | 0.00 | 35 | 1014.8 |
| 20260902203119 | 99 | 45 | 3.0 | 4.0 | 0.00 | 0.00 | 0.00 | 34 | 1015.0 |
| 20260902202203 | 98 | 45 | 2.0 | 3.0 | 0.00 | 0.00 | 0.00 | 35 | 1015.0 |
| 20260902201119 | 96 | 45 | 1.0 | 3.0 | 0.00 | 0.00 | 0.00 | 35 | 1015.3 |
| 20260902200143 | 98 | 0 | 3.0 | 4.0 | 0.00 | 0.00 | 0.00 | 35 | 1015.5 |
| 20260902195139 | 99 | 270 | 1.0 | 2.0 | 0.00 | 0.00 | 0.00 | 38 | 1015.4 |
| 20260902194143 | 98 | 135 | 1.0 | 2.0 | 0.00 | 0.00 | 0.00 | 36 | 1015.4 |
| 20260902193139 | 98 | 45 | 1.0 | 3.0 | 0.00 | 0.00 | 0.00 | 36 | 1015.9 |
| 20260902192143 | 96 | 45 | 3.0 | 4.0 | 0.00 | 0.00 | 0.00 | 38 | 1016.1 |
| 20260902191118 | 96 | 45 | 5.0 | 6.0 | 0.00 | 0.00 | 0.00 | 38 | 1016.2 |
| 20260902190143 | 95 | 45 | 3.0 | 4.0 | 0.00 | 0.00 | 0.00 | 40 | 1016.4 |
| 20260902185119 | 96 | 0 | 4.0 | 6.0 | 0.00 | 0.00 | 0.00 | 40 | 1016.6 |
| 20260902184143 | 96 | 90 | 4.0 | 7.0 | 0.00 | 0.00 | 0.00 | 40 | 1016.9 |
| 20260902183119 | 96 | 90 | 3.0 | 5.0 | 0.00 | 0.00 | 0.00 | 42 | 1016.6 |
| 20260902182143 | 95 | 135 | 5.0 | 7.0 | 0.00 | 0.00 | 0.00 | 42 | 1017.2 |
| 20260902181139 | 95 | 135 | 3.0 | 5.0 | 0.00 | 0.00 | 0.00 | 43 | 1017.4 |
| 20260902180143 | 94 | 0 | 3.0 | 4.0 | 0.00 | 0.00 | 0.00 | 43 | 1017.5 |
| 20260902174633 | 93 | 0 | 4.0 | 5.0 | 0.00 | 0.00 | 0.00 | 44 | 1017.8 |
| 20260902173609 | 93 | 45 | 2.0 | 3.0 | 0.00 | 0.00 | 0.00 | 47 | 1017.7 |
| 20260902172633 | 93 | 45 | 1.0 | 3.0 | 0.00 | 0.00 | 0.00 | 46 | 1018.1 |
| 20260902171609 | 93 | 0 | 2.0 | 3.0 | 0.00 | 0.00 | 0.00 | 47 | 1018.4 |
| 20260902170633 | 93 | 90 | 4.0 | 5.0 | 0.00 | 0.00 | 0.00 | 48 | 1018.4 |
| 20260902165609 | 93 | 180 | 3.0 | 4.0 | 0.00 | 0.00 | 0.00 | 50 | 1018.6 |
| 20260902164633 | 91 | 135 | 3.0 | 4.0 | 0.00 | 0.00 | 0.00 | 50 | 1018.9 |
| 20260902163609 | 91 | 135 | 2.0 | 3.0 | 0.00 | 0.00 | 0.00 | 51 | 1018.7 |
| 20260902162633 | 90 | 135 | 3.0 | 5.0 | 0.00 | 0.00 | 0.00 | 56 | 1018.9 |
| 20260902161609 | 90 | 90 | 3.0 | 5.0 | 0.00 | 0.00 | 0.00 | 56 | 1018.9 |
| 20260902160633 | 89 | 90 | 2.0 | 3.0 | 0.00 | 0.00 | 0.00 | 59 | 1019.0 |
| 20260902155609 | 89 | 90 | 3.0 | 4.0 | 0.00 | 0.00 | 0.00 | 60 | 1019.2 |
| 20260902154633 | 88 | 45 | 1.0 | 2.0 | 0.00 | 0.00 | 0.00 | 61 | 1018.9 |
| 20260902153609 | 88 | 45 | 5.0 | 5.0 | 0.00 | 0.00 | 0.00 | 60 | 1019.1 |
| 20260902152714 | 88 | 45 | 2.0 | 3.0 | 0.00 | 0.00 | 0.00 | 61 | 1018.9 |
| 20260902151609 | 87 | 90 | 3.0 | 3.0 | 0.00 | 0.00 | 0.00 | 63 | 1018.7 |
| 20260902150633 | 86 | 135 | 3.0 | 4.0 | 0.00 | 0.00 | 0.00 | 64 | 1018.6 |
| 20260902145609 | 85 | 135 | 2.0 | 3.0 | 0.00 | 0.00 | 0.00 | 65 | 1018.6 |
| 20260902144633 | 85 | 90 | 5.0 | 7.0 | 0.00 | 0.00 | 0.00 | 65 | 1018.4 |
| 20260902143608 | 85 | 90 | 3.0 | 4.0 | 0.00 | 0.00 | 0.00 | 66 | 1018.6 |
| 20260902142633 | 85 | 90 | 1.0 | 2.0 | 0.00 | 0.00 | 0.00 | 66 | 1018.6 |
| 20260902141609 | 84 | 135 | 1.0 | 2.0 | 0.00 | 0.00 | 0.00 | 66 | 1018.5 |
| 20260902140633 | 84 | 180 | 1.0 | 2.0 | 0.00 | 0.00 | 0.00 | 67 | 1018.5 |